Zurück zum Katalog

DAWN

AktivWissenschaftHCO
NORAD 32249·PAYLOAD·🇺🇸 United States

Gestartet Sep 27, 2007 von Cape Canaveral Space Force Station

Loading…

TLE

VeraltetSource: Space-Track

Epoche: Sep 27, 2007, 12:40 UTC

1 32249U 07043A   07270.52836325 -.00000070 +00000-0 +00000-0 0  9992
2 32249 028.6369 001.0332 3362896 301.3662 050.8261 02.66564887000007

Verfolge DAWN in Echtzeit mit AllMySat

Download on the App Store